This demonstration page uses our WeatherBlox Daily Observations layout. Learn more.

39.29038, -76.61219

Hourly Observations for May 17, 2019

Temp ( °F °C ) Dew Point ( °F °C ) Humidity (%) Winds ( mph kmh ) Pressure ( in mb ) Visibility ( mi km ) Precip ( " mm )
12:54 am 00:54 undefined 64 17.8 52 11.1 65 65 undefined N/A 29.89 1012 N/A 0 0
1:54 am 01:54 undefined 63 17.2 52 11.1 68 68 undefined N/A 29.87 1012 N/A 0 0
2:54 am 02:54 undefined 62 16.7 53 11.7 73 73 undefined N/A 29.86 1011 N/A 0 0
3:54 am 03:54 undefined 61 16.1 53 11.7 75 75 undefined N/A 29.85 1011 N/A 0 0
4:54 am 04:54 undefined 60 15.6 53 11.7 78 78 undefined N/A 29.82 1010 N/A 0 0
5:54 am 05:54 undefined 60 15.6 53 11.7 78 78 undefined N/A 29.83 1010 N/A 0 0
6:54 am 06:54 undefined 62 16.7 54 12.2 75 75 undefined N/A 29.83 1010 N/A 0 0
7:54 am 07:54 undefined 64 17.8 54 12.2 70 70 undefined N/A 29.83 1010 N/A 0 0
8:54 am 08:54 undefined 67 19.4 55 12.8 66 66 undefined N/A 29.83 1010 N/A 0 0
9:54 am 09:54 undefined 72 22.2 56 13.3 57 57 undefined N/A 29.83 1010 N/A 0 0
10:54 am 10:54 undefined 73 22.8 56 13.3 55 55 undefined N/A 29.82 1010 N/A 0 0
11:54 am 11:54 undefined 75 23.9 55 12.8 50 50 undefined N/A 29.81 1010 N/A 0 0
12:54 pm 12:54 undefined 79 26.1 56 13.3 45 45 undefined N/A 29.79 1009 N/A 0 0
1:54 pm 13:54 undefined 82 27.8 58 14.4 44 44 undefined N/A 29.76 1008 N/A 0 0
2:54 pm 14:54 undefined 82 27.8 59 15 46 46 undefined N/A 29.75 1008 N/A 0 0
3:54 pm 15:54 undefined 84 28.9 58 14.4 41 41 undefined N/A 29.76 1008 N/A 0 0
4:54 pm 16:54 undefined 83 28.3 59 15 44 44 undefined N/A 29.77 1008 N/A 0 0
5:54 pm 17:54 undefined 82 27.8 61 16.1 49 49 undefined N/A 29.77 1008 N/A 0 0
6:54 pm 18:54 undefined 81 27.2 61 16.1 51 51 undefined N/A 29.77 1008 N/A 0 0
7:54 pm 19:54 undefined 80 26.7 60 15.6 51 51 undefined N/A 29.79 1009 N/A 0 0
8:54 pm 20:54 undefined 78 25.6 60 15.6 54 54 undefined N/A 29.82 1010 N/A 0 0
9:54 pm 21:54 undefined 76 24.4 60 15.6 58 58 undefined N/A 29.84 1011 N/A 0 0
10:54 pm 22:54 undefined 75 23.9 60 15.6 60 60 undefined N/A 29.85 1011 N/A 0 0
11:54 pm 23:54 undefined 75 23.9 60 15.6 60 60 undefined N/A 29.87 1012 N/A 0 0

Powered by AerisWeather